Lake Tohopekaliga Weather Center

Moon Phase Calendar



Lake Tohopekaliga Water Level
Online Cameras

 


      

Current Conditions in Campbell
5/13/2021 7:02:24 PM

74°F
Feels Like 74
Clouds
Humidity
73%
Pressure
30.06"
Wind
8 mph (NE)
Dew Point
65°F
UV Index
0/10 (Low)
Visibility
6 mi

Hourly Forecast

Date & Time Thu, May 13
7:00 PM
Thu, May 13
8:00 PM
Thu, May 13
9:00 PM
Thu, May 13
10:00 PM
Thu, May 13
11:00 PM
Fri, May 14
12:00 AM
Fri, May 14
1:00 AM
Fri, May 14
2:00 AM
Fri, May 14
3:00 AM
Fri, May 14
4:00 AM
Fri, May 14
5:00 AM
Fri, May 14
6:00 AM
Fri, May 14
7:00 AM
Fri, May 14
8:00 AM
Fri, May 14
9:00 AM
Fri, May 14
10:00 AM
Fri, May 14
11:00 AM
Fri, May 14
12:00 PM
Fri, May 14
1:00 PM
Fri, May 14
2:00 PM
Fri, May 14
3:00 PM
Fri, May 14
4:00 PM
Fri, May 14
5:00 PM
Fri, May 14
6:00 PM
Fri, May 14
7:00 PM
Fri, May 14
8:00 PM
Fri, May 14
9:00 PM
Fri, May 14
10:00 PM
Fri, May 14
11:00 PM
Sat, May 15
12:00 AM
Sat, May 15
1:00 AM
Sat, May 15
2:00 AM
Sat, May 15
3:00 AM
Sat, May 15
4:00 AM
Sat, May 15
5:00 AM
Sat, May 15
6:00 AM
Sat, May 15
7:00 AM
Sat, May 15
8:00 AM
Sat, May 15
9:00 AM
Sat, May 15
10:00 AM
Sat, May 15
11:00 AM
Sat, May 15
12:00 PM
Sat, May 15
1:00 PM
Sat, May 15
2:00 PM
Sat, May 15
3:00 PM
Sat, May 15
4:00 PM
Sat, May 15
5:00 PM
Sat, May 15
6:00 PM
Condition
Clouds

Clouds

Clouds

Clouds

Clouds

Clouds

Clouds

Clouds

Clouds

Clouds

Clouds

Clouds

Clouds

Clouds

Clouds

Clouds

Clouds

Clouds

Clouds

Clouds

Clouds

Clouds

Clouds

Clouds

Clouds

Clouds

Clear

Clear

Clear

Clear

Clear

Clear

Clear

Clear

Clear

Clouds

Clouds

Clouds

Clouds

Clouds

Clouds

Clouds

Rain

Rain

Rain

Rain

Rain

Clouds
Temperature 74°F73°F72°F71°F69°F67°F67°F66°F66°F66°F65°F65°F65°F68°F71°F75°F79°F81°F81°F78°F80°F79°F78°F78°F77°F73°F71°F70°F69°F67°F66°F66°F66°F65°F65°F65°F65°F70°F74°F77°F80°F81°F81°F80°F78°F76°F76°F75°F
Feels Like 74°F73°F72°F71°F69°F67°F67°F66°F66°F66°F65°F65°F65°F68°F71°F75°F79°F82°F81°F78°F80°F79°F78°F78°F77°F73°F71°F70°F69°F67°F66°F66°F66°F65°F65°F65°F65°F70°F74°F77°F80°F82°F82°F80°F78°F77°F76°F75°F
Cloudiness 75%80%85%90%95%100%100%100%100%100%100%100%100%100%100%100%88%83%84%87%87%92%95%86%74%62%1%4%3%2%2%2%2%5%7%27%36%37%77%66%60%54%56%60%93%92%90%91%
Visibility 6 mi6 mi6 mi6 mi6 mi6 mi6 mi6 mi6 mi6 mi6 mi6 mi6 mi6 mi6 mi6 mi6 mi6 mi6 mi6 mi6 mi6 mi6 mi6 mi6 mi6 mi6 mi6 mi6 mi6 mi6 mi6 mi6 mi6 mi6 mi6 mi6 mi6 mi6 mi6 mi6 mi6 mi6 mi6 mi6 mi6 mi6 mi6 mi
Precipitation 0%1%1%1%1%1%1%0%0%0%0%0%0%0%3%3%3%3%3%3%1%1%2%0%0%0%0%0%0%0%0%0%0%0%0%0%0%1%10%10%23%23%31%35%67%75%71%71%
Humidity 73%74%75%77%80%82%83%84%84%84%85%84%82%76%69%63%56%51%49%52%49%52%53%51%55%63%70%73%75%79%82%81%81%82%83%86%86%76%65%58%52%49%51%53%57%61%62%61%
Dew Point 65°F64°F64°F63°F62°F62°F61°F61°F61°F61°F60°F60°F59°F60°F61°F61°F62°F61°F60°F60°F59°F59°F59°F59°F60°F60°F60°F61°F61°F61°F60°F60°F60°F60°F60°F61°F61°F62°F62°F62°F61°F61°F61°F61°F62°F62°F62°F61°F
Pressure 30.06"30.06"30.06"30.09"30.12"30.12"30.12"30.09"30.09"30.09"30.06"30.09"30.09"30.12"30.12"30.15"30.12"30.12"30.09"30.09"30.09"30.09"30.06"30.06"30.06"30.09"30.12"30.15"30.15"30.15"30.15"30.12"30.09"30.12"30.12"30.12"30.15"30.15"30.18"30.18"30.18"30.18"30.15"30.15"30.15"30.15"30.15"30.15"
Wind Speed 10.3 mph10.2 mph10.5 mph10.8 mph10.2 mph9.6 mph8.2 mph7.8 mph7.5 mph6.4 mph7 mph7.1 mph7.1 mph9.3 mph11.6 mph11.6 mph11 mph10.8 mph12.4 mph12.6 mph11.4 mph13 mph12 mph15.8 mph15.5 mph15.4 mph13.6 mph11.1 mph9.2 mph6.4 mph5.7 mph6.5 mph6.8 mph6 mph6.6 mph6.6 mph6.5 mph8.2 mph10.8 mph11.2 mph12 mph13.4 mph15.4 mph15 mph14.3 mph13.7 mph14.3 mph14.4 mph
Wind
Direction
14°
NNE
14°
NNE
10°
N
10°
N

N

N

N

N
357°
N
345°
NNW
344°
NNW
338°
NNW
340°
NNW
352°
N

N
19°
NNE
26°
NNE
29°
NNE
34°
NE
36°
NE
34°
NE
44°
NE
60°
ENE
58°
ENE
51°
NE
43°
NE
41°
NE
37°
NE
40°
NE
36°
NE
43°
NE
33°
NNE
40°
NE
39°
NE
45°
NE
31°
NNE
32°
NNE
37°
NE
53°
NE
58°
ENE
63°
ENE
68°
ENE
73°
ENE
75°
ENE
79°
E
77°
ENE
76°
ENE
79°
E

Daily Forecast

Date High Low Precip. Humidity
Today
May 13

Clouds
76 °F
69 °F
46%
77%
Friday
May 14

Clouds
81 °F
65 °F
3%
49%
Saturday
May 15

Rain
80 °F
65 °F
71%
53%
Sunday
May 16

Clouds
78 °F
67 °F
0%
45%
Monday
May 17

Rain
82 °F
70 °F
28%
50%
Tuesday
May 18

Clear
89 °F
68 °F
0%
37%
Wednesday
May 19

Rain
85 °F
68 °F
31%
47%
Thursday
May 20

Rain
83 °F
69 °F
54%
57%
Friday
May 21

Rain
82 °F
70 °F
100%
74%
Saturday
May 22

Rain
83 °F
70 °F
88%
66%
Sunday
May 23

Rain
91 °F
72 °F
100%
44%
Monday
May 24

Rain
94 °F
71 °F
100%
42%
Tuesday
May 25

Clouds
96 °F
71 °F
81%
40%
Wednesday
May 26

Rain
96 °F
73 °F
47%
34%
Thursday
May 27

Rain
95 °F
74 °F
92%
34%
Friday
May 28

Rain
94 °F
74 °F
93%
41%

Temperature 8-14 Day Outlook



Precipitation 8-14 Day Outlook




Quick Links
Lake Tohopekaliga News
Lake Tohopekaliga Photos
Lake Tohopekaliga Videos




About Us
Contact Us
Site Map
Search Site
Advertise With Us
   
Tohopekaliga.USLakes.info
THE LAKE TOHOPEKALIGA WEBSITE

Copyright 2021, Lakes Online
Privacy    |    Legal